Regional Weather Roundup
Issued by NWS Upton, NY

Current Version | Previous Version | Graphics & Text | Print | Product List | Glossary Off
Versions: 1 2 3 4 5 6 7 8 9 10 11 12 13 14 15 16 17 18 19 20 21 22 23 24 25 26 27 28 29 30 31 32 33 34 35 36 37 38 39 40 41 42 43 44 45 46 47 48 49 50

923
ASUS41 KOKX 171908
RWROKX

REGIONAL WEATHER ROUNDUP
NATIONAL WEATHER SERVICE NEW YORK NY
300 PM EDT TUE OCT 17 2017

NOTE: "FAIR" INDICATES FEW OR NO CLOUDS BELOW 12,000 FEET WITH NO
SIGNIFICANT WEATHER AND/OR OBSTRUCTIONS TO VISIBILITY.

NYZ071-072-176-178-NJZ106-104-172000-
NEW YORK CITY METRO AREA

CITY           SKY/WX    TMP DP  RH WIND       PRES   REMARKS
Central Park   SUNNY     58  29  33 VRB3      30.30F
Bronx Bot Gard   N/A     59  30  33 SW13      30.29S
LaGuardia APRT SUNNY     59  31  34 VRB5      30.27F
Kennedy INTL   MOSUNNY   59  29  31 VRB3      30.29F
Breezy Point     N/A     55 N/A N/A NW6         N/A
Newark/Liberty SUNNY     60  30  32 MISG      30.27F
Teterboro      SUNNY     61  30  31 CALM      30.26F
$$

NYZ177-179-078>081-172000-
LONG ISLAND NEW YORK

CITY           SKY/WX    TMP DP  RH WIND       PRES   REMARKS
Jones Beach      N/A     55 N/A N/A W5          N/A
Matinecock PT    N/A     54 N/A N/A SW7         N/A
Farmingdale    SUNNY     57  29  34 VRB3      30.28F
MacArthur/ISP  SUNNY     56  29  35 CALM      30.28F
Shirley        SUNNY     58  33  39 NW3       30.28F
Mt Sinai Harb    N/A    N/A N/A N/A NW2         N/A
Westhampton    SUNNY     55  29  36 CALM      30.29F
East Hampton   FAIR      54  33  46 CALM      30.27S
Montauk          N/A     54  32  43 NW6       30.28F
$$

NYZ052-065-067-172000-
HUDSON VALLEY

CITY           SKY/WX    TMP DP  RH WIND       PRES   REMARKS
White Plains   SUNNY     57  28  33 W3        30.26F
Larchmont Harb   N/A     54 N/A N/A S7          N/A
Croton On Huds   N/A     57 N/A N/A SW2         N/A
Newburgh       SUNNY     57  34  41 SW7       30.27F
Montgomery     SUNNY     58  35  42 SE5       30.24F
Poughkeepsie   SUNNY     56  32  40 SW6       30.25F
Albany         MOSUNNY   55  28  35 CALM      30.22F
$$

NJZ001-105-106-008-010-013-015-019>022-104-172000-
NEW JERSEY

CITY           SKY/WX    TMP DP  RH WIND       PRES   REMARKS
Newark/Liberty SUNNY     60  30  32 MISG      30.27F
Teterboro      SUNNY     61  30  31 CALM      30.26F
Caldwell       SUNNY     58  33  39 S7        30.27F
Somerville     SUNNY     62  35  36 NW3       30.26F
Linden         FAIR      59  32  35 CALM      30.28F
Perth Amboy    NOT AVBL
Sussex         SUNNY     58  34  40 VRB3      30.25F
Andover          N/A     59  32  36 SW7       30.26F
Trenton        SUNNY     59  35  40 W7        30.28F
Millville      SUNNY     61  37  41 W5        30.30F
Atlantic City  SUNNY     60  35  39 N3        30.30S
Wrightstown    SUNNY     59  32  36 NW7       30.28F
Toms River       N/A     58  35  42 N3        30.29F
Belmar         SUNNY     57  33  40 CALM      30.30F
$$

PAZ047>061-062-071-172000-
EASTERN PENNSYLVANIA

CITY           SKY/WX    TMP DP  RH WIND       PRES   REMARKS
Philadelphia   SUNNY     60  32  34 N6        30.30F
Allentown      SUNNY     61  33  35 CALM      30.27F
Scranton       SUNNY     58  31  35 SW7       30.25F
$$

CTZ002-004>006-009-010-012-RIZ004-006-007-MAZ004-011-015-172000-
SOUTHERN NEW ENGLAND
 IN CT

CITY           SKY/WX    TMP DP  RH WIND       PRES   REMARKS
Bradley INTL   SUNNY     57  28  33 S5        30.24F
Hartford       SUNNY     56  28  34 VRB5      30.25F
Danbury        SUNNY     57  31  37 S3        30.26F
Wtrbury/Oxford SUNNY     57  32  38 VRB5      30.25F
Norwalk Harbor   N/A     52 N/A N/A SW9         N/A
Bridgeport     SUNNY     57  36  45 SW9       30.27F
Meriden        SUNNY     57  28  33 S6        30.25F
New Haven      SUNNY     55  34  45 W6        30.27F
Chester        FAIR      59  25  27 CALM      30.26S
Groton         SUNNY     55  36  48 SW12      30.26S
Wilimantic     SUNNY     58  26  29 VRB5      30.25F

 IN RI

CITY           SKY/WX    TMP DP  RH WIND       PRES   REMARKS
Providence     MOSUNNY   59  31  34 VRB7      30.25F
Block Island   SUNNY     55  33  43 W5        30.27F
Westerly       SUNNY     56  33  42 S13       30.26F
 IN MA

CITY           SKY/WX    TMP DP  RH WIND       PRES   REMARKS
Boston         SUNNY     55  30  38 S6        30.23F
Worcester      SUNNY     53  24  32 W7        30.22F
Westfield      SUNNY     57  27  31 SW5       30.23F
Provincetown   SUNNY     52  35  52 W6        30.26S
Nantucket      SUNNY     53  36  52 N9        30.25S
$$

ANZ330-335-338-340-345-350-353-355-172000-
COASTAL MARINE OBSERVATIONS


STATION/POSITION TIME  SKY/WX   TEMP    WIND        PRES    VSBY  WAVE
                                AIR SEA DIR/SP/G                  HT/PER
                 (UTC)          (F)     (DEG/KT/KT) (MB)    (MI)  (FT/S)
NY HARB ENTRANCE 1850            53 65  270/  4/  8 1025.2          2/ 5
20 S FIRE ISLAND 1750            51 64   20/  6/ 10 1026.1          3/ 5
GREAT SOUTH BAY  1830            54 62  360/  2/  6   N/A
15 E BARNEGAT LI 1830               67                N/A           4/ 6
HUDSON CANYON    1850            53 65   30/ 10/ 16 1024.6          4/ 6
KINGS POINT      1836            57 66  170/  3/  4 1026.1
EXECUTION ROCKS  1830            56     200/  6/  8   N/A
WESTERN LI SOUND 1749            53     220/  6/ 10   N/A           0
CENTRAL LI SOUND NOT AVBL
EASTERN LI SOUND NOT AVBL
ROBBINS REEF     1842            54      70/  4/  7 1026.0
$$


>>>>>>>>>>>>>>>>>>>>>>>>>>>> KEY <<<<<<<<<<<<<<<<<<<<<<<<<<<
>                                                          <
>     SKY/WX - Sky Condition/Present Weather               <
>     TMP    - Temperature in Fahrenheit                   <
>     DP     - Dew Point in Fahrenheit                     <
>     RH     - Relative Humidity in Percent                <
>     WIND   - Direction (from) and Speed in MPH           <
>     PRES   - Mean Sea Level Pressure (inches of Hg)      <
>     WCI    - Wind Chill Index                            <
>     VSB    - VISIBILITY IN MILES                         <
>     HX     - HEAT INDEX                                  <
>     TC     - TEMPERATURE IN CELSIUS                      <
>     VRB    - VARIABLE WIND DIRECTION                     <
>                                                          <
>>>>>>>>>>>>>>>>>>>>>>>>>>>> KEY <<<<<<<<<<<<<<<<<<<<<<<<<<<




USA.gov is the U.S. government's official web portal to all federal, state and local government web resources and services.